Regional Weather Roundup
Issued by NWS Cleveland, OH

Home | Current Version | Previous Version | Text Only | Print | Product List | Glossary Off
Versions: 1 2 3 4 5 6 7 8 9 10 11 12 13 14 15 16 17 18 19 20 21 22 23 24 25 26 27 28 29 30 31 32 33 34 35 36 37 38 39 40 41 42 43 44 45 46 47 48 49 50

000
ASUS41 KCLE 290702
RWRCLE
OHIO REGIONAL WEATHER ROUNDUP
NATIONAL WEATHER SERVICE CLEVELAND, OH
300 AM EDT FRI AUG 29 2014

NOTE: "FAIR" INDICATES FEW OR NO CLOUDS BELOW 12,000 FEET WITH NO
SIGNIFICANT WEATHER AND/OR OBSTRUCTIONS TO VISIBILITY.

OHZ001>008-015>018-024>027-034-035-043-044-290800-
   NORTHWEST OHIO

CITY           SKY/WX    TMP DP  RH WIND       PRES   REMARKS
DEFIANCE       PTCLDY    60  55  83 E5        30.10F
FINDLAY        CLEAR     60  53  77 E9        30.10F
TOLEDO EXPRESS PTCLDY    59  51  75 SE3       30.11F
TOLEDO EXEC    PTCLDY    58  51  78 E6        30.13F
LIMA           CLEAR     62  55  77 E9        30.10F
$$

OHZ009>014-019>023-028>033-038-089-290800-
   NORTHEAST OHIO

CITY           SKY/WX    TMP DP  RH WIND       PRES   REMARKS
CLE-HOPKINS    CLEAR     52  49  89 SW3       30.16S
CLE-LAKEFRONT  CLEAR     60  50  69 SE5       30.13F
CUY CO. ARPT   NOT AVBL
LORAIN-ELYRIA  CLEAR     54  49  83 SE5       30.15S
ASHTABULA      CLEAR     50  48  93 CALM      30.17F
AKRON-CANTON   CLEAR     56  50  80 E3        30.15S
WOOSTER        CLEAR     48  46  93 CALM      30.15F
MANSFIELD      CLEAR     56  51  84 SE7       30.14F
YOUNGSTOWN     PTCLDY    51  49  92 E3        30.16S
$$

OHZ042-051>053-060>062-070>072-077>081-290800-
  SOUTHWEST OHIO

CITY           SKY/WX    TMP DP  RH WIND       PRES   REMARKS
CINC-COVINGTON MOCLDY    70  61  73 E7        30.07F
CINC-LUNKEN    PTCLDY    66  62  87 CALM      30.08F
HAMILTON       PTCLDY    66  62  87 E5        30.08F
DAYTON         CLEAR     67  59  75 E8        30.11S
WRIGHT-PAT AFB CLEAR     65  59  82 E6        30.10F
DAYTON GENERAL PTCLDY    66  60  81 E6        30.08F
WILMINGTON     CLEAR     63  58  83 E6        30.09F
$$

OHZ036-037-039>041-045>050-054>059-063>069-073>076-082>088-290800-
  CENTRAL AND SOUTHEAST OHIO

CITY           SKY/WX    TMP DP  RH WIND       PRES   REMARKS
COLUMBUS       CLEAR     63  52  67 E6        30.11F
OSU AIRPORT    CLEAR     60  54  80 E6        30.11F
BOLTON FIELD   CLEAR     61  56  83 E5        30.12F
RICKENBACK AFB CLEAR     62  55  77 NE7       30.11S
NEWARK         CLEAR     57  53  86 CALM      30.13S
MARION         CLEAR     57  51  80 CALM      30.12F
LANCASTER      CLEAR     59  55  87 E5        30.12F
ZANESVILLE     CLEAR     58  51  78 NE3       30.14S
NEW PHILLY     CLEAR     52  51  97 NE3       30.16S
$$


USA.gov is the U.S. government's official web portal to all federal, state and local government web resources and services.